Date,TemperatureHighF,TemperatureAvgF,TemperatureLowF,DewpointHighF,DewpointAvgF,DewpointLowF,HumidityHigh,HumidityAvg,HumidityLow,PressureMaxIn,PressureMinIn,WindSpeedMaxMPH,WindSpeedAvgMPH,GustSpeedMaxMPH,PrecipitationSumIn
2013-1-1,47.8,44.9,42.4,45.2,40.0,31.2,98,84,61,30.07,29.88,2,0,7,0.24
2013-1-2,45.7,41.1,37.1,45.2,39.6,36.3,98,95,87,30.18,29.91,2,0,9,0.30
2013-1-3,40.9,36.1,28.3,37.1,32.6,27.1,98,87,72,30.22,30.15,2,0,8,0.00
2013-1-4,45.6,37.1,27.5,32.3,28.0,24.1,97,72,50,30.27,30.15,2,0,11,0.00
2013-1-5,48.9,38.2,27.7,33.3,28.1,23.3,88,68,42,30.36,30.23,4,0,7,0.00
2013-1-6,51.2,42.7,33.6,40.1,36.4,31.4,95,79,64,30.22,30.02,2,0,7,0.00
2013-1-7,49.9,36.9,27.6,38.0,31.1,26.4,96,82,52,30.42,30.14,3,0,11,0.00
2013-1-8,49.9,38.2,27.2,40.6,34.5,25.7,97,87,63,30.45,30.35,0,0,3,0.00
2013-1-9,67.9,50.4,32.8,54.8,44.4,31.5,97,81,59,30.40,30.28,2,0,8,0.00
2013-1-10,59.2,47.8,38.7,46.5,38.7,33.6,97,74,38,30.52,30.36,3,0,10,0.00
2013-1-11,51.8,45.8,36.8,51.3,43.5,33.3,98,92,77,30.45,30.11,2,0,8,0.15
2013-1-12,61.7,54.9,47.4,59.8,54.2,46.9,99,98,92,30.13,30.08,1,0,5,0.00
2013-1-13,72.5,61.6,56.0,64.5,59.3,55.7,100,93,72,30.10,30.01,2,0,7,0.00
2013-1-14,65.2,59.7,50.4,63.1,58.5,49.6,99,96,87,30.16,30.02,3,0,13,0.65
2013-1-15,50.3,44.3,43.0,49.5,43.5,41.9,99,97,95,30.24,30.04,4,1,18,0.17
2013-1-16,48.4,44.9,41.4,48.1,44.5,40.6,99,99,97,30.04,29.93,3,0,6,0.19
2013-1-17,48.8,44.5,33.9,48.5,44.0,33.4,99,98,95,30.06,29.93,8,1,21,1.16
2013-1-18,43.2,36.2,28.1,39.2,32.9,26.8,99,89,66,30.51,30.07,1,0,7,0.28
2013-1-19,50.7,36.9,26.2,36.2,30.3,24.9,98,79,48,30.48,30.10,4,0,9,0.01
2013-1-20,60.4,44.8,32.7,39.6,34.8,30.2,94,71,40,30.10,29.92,1,0,10,0.00
2013-1-21,56.0,42.5,27.4,36.2,29.6,18.6,96,65,37,30.05,29.80,5,0,10,0.00
2013-1-22,42.0,32.7,24.9,19.6,8.7,0.5,52,37,25,30.26,29.90,2,0,12,0.00
2013-1-23,37.5,30.0,18.0,19.0,10.3,3.9,73,45,26,30.34,30.04,4,0,9,0.00
2013-1-24,36.6,30.2,24.7,25.2,15.6,6.9,76,55,37,30.51,29.92,4,0,13,0.00
2013-1-25,27.3,22.9,15.9,24.3,15.5,6.3,93,75,44,30.50,30.07,3,0,7,0.00
2013-1-26,33.8,26.2,17.2,29.5,23.9,15.0,96,91,83,30.39,30.06,2,0,7,0.08
2013-1-27,39.1,29.9,18.4,28.5,24.1,16.5,95,80,56,30.58,30.39,5,0,11,0.07
2013-1-28,51.9,40.9,28.8,46.3,36.5,25.7,92,85,69,30.48,30.16,3,0,12,0.12
2013-1-29,71.0,57.9,46.8,55.6,51.5,45.4,97,81,54,30.16,30.02,2,0,8,0.00
2013-1-30,72.0,66.7,58.7,64.2,61.6,55.5,96,84,73,30.02,29.33,10,3,29,0.01
2013-1-31,69.1,48.1,31.0,64.4,34.5,21.2,93,61,38,29.95,29.28,7,1,21,0.38
2013-2-1,40.4,33.4,26.0,32.2,15.7,-99.9,78,51,31,30.36,29.81,3,0,14,0.00
2013-2-2,40.7,31.7,18.2,34.5,14.8,8.6,87,51,32,30.37,29.99,6,1,13,0.01
2013-2-3,48.1,39.9,33.0,35.9,30.0,22.9,93,70,40,29.99,29.80,2,0,10,0.00
2013-2-4,46.6,37.6,25.9,27.5,23.5,20.4,86,58,40,30.10,29.94,3,0,7,0.00
2013-2-5,57.6,45.3,33.8,37.5,33.6,27.6,90,65,44,29.95,29.83,2,0,9,0.00
2013-2-6,58.9,44.2,30.8,40.0,32.8,29.2,96,69,35,30.27,29.92,1,0,9,0.00
2013-2-7,48.9,41.1,33.9,41.2,36.2,30.7,95,83,68,30.33,30.01,7,1,16,0.86
2013-2-8,51.3,44.0,40.3,46.0,40.3,31.2,98,88,61,30.01,29.75,5,0,15,0.94
2013-2-9,49.7,39.6,27.9,30.8,25.4,19.7,87,59,31,30.34,29.95,2,0,10,0.00
2013-2-10,49.5,36.7,22.7,37.0,25.6,19.7,92,67,35,30.46,30.20,5,0,9,0.00
2013-2-11,61.7,54.2,44.6,60.1,52.2,37.3,99,93,71,30.19,29.84,4,0,9,0.07
2013-2-12,58.7,52.3,43.2,54.6,38.8,30.9,92,62,36,30.03,29.85,2,0,9,0.01
2013-2-13,48.5,45.9,42.5,46.4,44.5,37.6,98,95,66,29.91,29.57,2,0,9,0.17
2013-2-14,50.3,40.6,31.5,40.1,36.3,30.6,99,86,62,30.04,29.76,4,0,7,0.00
2013-2-15,59.3,44.6,29.8,42.7,35.8,28.8,98,75,39,30.05,29.89,3,0,7,0.00
2013-2-16,46.9,37.7,31.5,39.0,35.0,30.2,97,90,70,29.93,29.78,3,0,12,0.30
2013-2-17,33.9,30.2,25.5,30.2,18.4,9.8,95,64,39,30.23,29.83,4,0,18,0.03
2013-2-18,49.0,34.3,16.5,28.2,19.4,10.3,91,57,29,30.38,30.23,4,0,11,0.00
2013-2-19,55.0,43.7,31.4,50.7,38.6,25.5,93,82,63,30.23,29.78,2,0,13,0.01
2013-2-20,49.9,41.1,31.1,37.6,22.7,16.3,86,51,27,30.11,29.89,2,0,11,0.00
2013-2-21,49.5,38.8,24.1,28.7,22.2,18.4,84,53,33,30.26,30.08,6,0,13,0.00
2013-2-22,42.5,38.1,33.8,36.8,27.3,20.1,96,66,49,30.33,30.13,6,1,14,0.11
2013-2-23,43.4,40.3,37.4,42.6,39.5,36.4,98,97,96,30.13,29.77,1,0,8,0.44
2013-2-24,58.8,45.4,35.1,47.0,39.7,31.8,99,83,42,30.03,29.75,3,0,20,0.12
2013-2-25,46.2,36.1,29.5,31.8,18.7,-99.9,91,64,50,30.20,30.02,3,0,11,0.00
2013-2-26,55.7,43.2,29.3,54.9,40.7,-99.9,99,92,81,30.15,29.54,10,2,22,0.57
2013-2-27,59.2,49.9,37.6,52.8,42.4,35.8,98,78,49,29.71,29.54,1,0,11,0.00
2013-2-28,51.9,43.5,36.4,39.4,32.5,28.5,95,67,42,29.79,29.64,2,0,11,0.00
2013-3-1,49.3,40.4,30.6,34.6,31.3,27.3,90,71,52,29.86,29.76,1,0,7,0.00
2013-3-2,44.3,38.9,31.4,31.9,28.8,23.7,82,67,52,29.87,29.79,3,0,7,0.00
2013-3-3,45.9,38.4,31.0,26.4,23.5,19.2,76,56,40,29.92,29.78,3,0,11,0.00
2013-3-4,48.5,37.2,27.3,22.4,19.3,16.1,73,50,29,30.04,29.91,2,0,9,0.00
2013-3-5,52.1,39.7,28.7,42.2,31.5,20.8,95,75,39,30.05,29.58,5,1,14,0.41
2013-3-6,40.3,37.9,34.8,39.5,36.3,33.1,97,94,85,29.94,29.42,3,1,24,0.24
2013-3-7,50.4,42.3,34.6,38.2,32.5,27.4,87,69,53,30.16,29.94,0,0,8,0.00
2013-3-8,53.4,42.6,29.1,33.4,29.3,26.3,91,62,39,30.23,30.08,2,0,11,0.00
2013-3-9,59.2,45.8,32.4,34.2,30.6,27.4,87,59,30,30.29,30.20,3,0,7,0.00
2013-3-10,63.2,46.9,27.8,40.8,29.5,22.5,94,58,22,30.29,30.18,4,0,13,0.00
2013-3-11,68.8,55.7,40.8,52.6,46.6,35.7,97,73,52,30.23,29.92,7,2,16,0.00
2013-3-12,67.8,60.2,48.3,63.9,53.9,35.5,98,81,55,29.93,29.70,7,2,20,0.75
2013-3-13,57.5,47.2,33.3,39.0,31.6,21.8,90,57,35,30.06,29.89,2,0,11,0.00
2013-3-14,52.2,41.5,29.6,25.7,22.3,20.0,74,48,29,30.17,30.04,2,0,11,0.00
2013-3-15,61.8,46.9,26.9,36.5,29.2,20.3,86,53,30,30.12,29.84,2,0,11,0.00
2013-3-16,75.6,57.9,43.2,57.5,46.3,35.1,95,68,42,29.84,29.54,1,0,10,0.05
2013-3-17,53.9,45.3,38.9,53.3,42.4,36.6,98,90,79,30.19,29.76,6,1,16,0.00
2013-3-18,43.1,39.7,36.9,42.3,38.8,35.9,98,97,95,30.19,29.83,5,1,12,0.08
2013-3-19,65.5,50.7,39.4,49.6,35.5,13.3,99,65,22,29.96,29.76,2,0,14,0.04
2013-3-20,55.7,46.6,38.6,27.2,18.6,11.2,61,34,22,30.05,29.75,3,0,10,0.00
2013-3-21,46.7,38.4,31.3,34.9,23.1,12.6,82,56,30,29.92,29.68,2,0,10,0.00
2013-3-22,51.8,38.3,24.7,22.9,17.5,13.7,72,45,23,30.03,29.90,2,0,11,0.00
2013-3-23,55.9,40.5,26.7,34.3,27.7,20.9,85,63,35,30.02,29.87,4,0,8,0.00
2013-3-24,39.6,36.4,32.3,38.3,34.0,28.8,96,91,78,29.90,29.55,9,1,20,0.30
2013-3-25,47.6,39.2,34.1,40.5,33.7,28.6,98,82,55,29.72,29.50,3,0,13,0.48
2013-3-26,51.6,41.2,31.3,36.1,31.4,27.1,88,70,47,30.03,29.72,1,0,8,0.16
2013-3-27,55.1,44.0,34.1,32.7,28.2,24.6,82,56,36,30.15,30.03,2,0,11,0.00
2013-3-28,56.7,44.5,27.8,33.3,28.1,24.8,91,56,32,30.23,30.09,2,0,9,0.00
2013-3-29,60.1,45.2,28.2,35.5,30.3,25.1,92,60,32,30.27,30.12,3,0,11,0.00
2013-3-30,62.6,48.9,32.8,42.1,34.7,29.6,93,62,30,30.19,30.05,4,0,12,0.00
2013-3-31,65.7,54.5,47.0,59.2,49.9,37.3,97,85,60,30.08,29.75,5,0,10,0.10
2013-4-1,73.2,60.3,50.8,54.9,48.5,34.1,98,70,34,29.93,29.73,2,0,10,0.01
2013-4-2,60.2,48.6,33.1,36.8,29.1,22.6,87,50,26,30.11,29.93,2,0,12,0.00
2013-4-3,59.1,46.8,32.4,35.8,26.3,20.4,89,49,24,30.29,30.10,5,0,12,0.00
2013-4-4,50.9,42.8,36.5,40.3,30.9,22.4,97,65,40,30.36,29.91,7,2,19,0.00
2013-4-5,62.9,48.7,40.7,48.8,42.8,39.7,98,83,48,29.96,29.81,4,0,12,0.64
2013-4-6,61.6,50.0,38.4,39.7,33.5,27.1,96,57,29,30.26,29.96,8,1,15,0.00
2013-4-7,72.5,51.7,31.6,46.5,38.7,29.3,92,65,36,30.26,30.05,5,0,15,0.00
2013-4-8,80.8,66.3,50.9,60.8,53.6,46.5,93,66,42,30.10,29.98,4,0,19,0.00
2013-4-9,87.0,72.2,58.6,63.0,57.8,53.4,90,63,36,30.11,29.98,2,0,10,0.00
2013-4-10,89.9,76.7,63.1,66.4,60.5,57.9,85,60,37,30.02,29.86,4,0,10,0.00
2013-4-11,82.6,73.5,62.2,65.8,61.4,57.9,88,67,48,29.91,29.75,5,0,13,0.00
2013-4-12,80.1,72.2,65.4,70.5,65.6,48.3,97,81,53,29.76,29.53,4,1,16,0.52
2013-4-13,73.1,63.7,52.8,48.7,44.7,40.8,78,52,33,29.94,29.67,4,0,11,0.00
2013-4-14,79.3,64.3,45.0,52.3,47.0,41.0,95,58,27,30.06,29.94,5,0,12,0.00
2013-4-15,66.9,61.6,55.7,60.3,56.2,49.3,94,83,54,30.19,30.02,8,1,18,0.10
2013-4-16,75.5,63.2,51.9,63.5,58.4,50.5,98,86,58,30.26,30.15,2,0,8,0.00
2013-4-17,83.9,69.6,58.1,67.2,63.0,56.9,97,82,53,30.18,30.04,8,0,16,0.17
2013-4-18,77.3,68.8,59.7,66.8,60.9,57.9,98,78,54,30.16,30.00,6,1,16,0.00
2013-4-19,82.1,71.4,62.8,69.2,65.5,59.3,97,83,63,30.01,29.66,7,1,23,0.45
2013-4-20,65.1,55.5,44.1,64.5,44.5,34.6,98,70,37,30.23,29.73,1,0,11,0.18
2013-4-21,57.6,50.3,41.6,42.9,38.9,35.1,97,67,46,30.48,30.23,7,2,17,0.00
2013-4-22,59.9,49.6,39.8,46.7,42.1,36.0,89,76,57,30.47,30.25,6,1,20,0.00
2013-4-23,63.2,54.2,48.5,52.9,47.6,45.0,94,79,59,30.25,30.08,4,0,19,0.00
2013-4-24,79.2,62.4,46.3,59.5,53.5,44.9,98,75,47,30.10,29.89,4,0,17,0.00
2013-4-25,64.8,59.3,48.7,57.3,48.1,41.9,91,68,45,30.24,29.94,4,0,12,0.00
2013-4-26,69.3,57.1,40.9,53.4,46.2,39.3,97,70,41,30.38,30.24,6,0,11,0.00
2013-4-27,72.1,61.4,47.3,52.9,45.6,40.4,87,58,37,30.35,30.22,4,0,12,0.00
2013-4-28,65.0,58.6,52.4,53.1,48.6,44.7,94,70,48,30.25,30.07,2,0,9,0.05
2013-4-29,67.8,61.2,54.8,64.5,59.6,53.1,99,95,85,30.08,29.93,0,0,6,1.25
2013-4-30,67.9,62.4,58.4,61.1,59.0,56.8,98,89,76,30.14,29.97,3,0,13,0.00
2013-5-1,60.8,58.9,56.4,57.7,56.4,54.2,97,91,86,30.30,30.12,7,1,18,0.00
2013-5-2,66.5,58.7,52.1,58.4,54.6,49.9,97,87,63,30.32,30.22,5,1,14,0.00
2013-5-3,66.9,55.5,46.2,56.1,48.2,41.4,98,79,42,30.25,30.17,10,3,26,0.00
2013-5-4,60.3,53.9,48.3,53.9,49.7,45.7,93,86,76,30.20,30.08,7,1,17,0.00
2013-5-5,59.8,54.2,47.8,55.6,50.9,45.7,95,89,81,30.10,29.98,7,3,20,0.00
2013-5-6,71.5,61.6,55.3,63.3,59.4,53.8,98,93,69,30.02,29.82,10,3,23,0.11
2013-5-7,71.3,64.3,54.7,62.1,59.2,52.8,97,85,52,29.90,29.81,4,0,14,0.01
2013-5-8,69.2,59.5,48.6,62.6,56.0,47.2,98,89,69,29.97,29.88,3,0,9,0.08
2013-5-9,80.7,66.4,52.4,64.4,59.0,51.6,99,80,47,30.00,29.92,3,0,9,0.00
2013-5-10,86.4,73.2,59.2,66.8,61.7,56.7,93,70,43,30.00,29.87,4,0,11,0.00
2013-5-11,83.4,74.4,67.3,67.7,64.2,61.4,89,71,50,29.90,29.72,3,1,13,0.02
2013-5-12,75.6,65.9,54.2,64.8,53.4,38.4,97,68,35,29.98,29.72,2,0,12,0.10
2013-5-13,68.7,55.7,42.3,48.0,40.2,34.2,92,59,32,30.13,29.99,4,0,13,0.00
2013-5-14,71.5,56.5,37.3,48.6,41.0,34.5,93,60,30,30.20,30.03,5,1,12,0.00
2013-5-15,88.1,72.5,54.7,65.6,57.2,43.5,80,60,43,30.03,29.80,4,1,10,0.00
2013-5-16,88.8,77.5,65.3,67.3,63.3,58.9,87,64,39,29.90,29.81,3,0,12,0.00
2013-5-17,84.5,74.1,62.3,69.7,61.8,50.6,92,67,45,30.05,29.90,5,1,10,0.00
2013-5-18,76.5,67.7,62.1,69.1,63.2,55.1,98,86,57,30.11,30.04,4,1,13,0.86
2013-5-19,77.2,68.8,64.7,71.6,67.0,64.4,99,94,74,30.12,30.02,5,0,13,0.13
2013-5-20,77.3,70.1,66.5,72.5,68.6,65.6,99,95,81,30.07,29.98,3,0,10,0.94
2013-5-21,82.9,73.4,67.7,75.3,70.5,67.4,100,91,75,29.99,29.88,5,0,9,0.00
2013-5-22,83.6,75.1,68.9,72.4,69.4,67.5,97,83,64,29.97,29.85,5,1,12,0.00
2013-5-23,81.2,72.2,67.7,73.3,68.7,66.4,97,89,68,29.91,29.75,4,0,13,0.07
2013-5-24,71.6,64.9,54.1,67.5,56.5,41.4,98,77,47,30.11,29.74,2,0,15,0.01
2013-5-25,71.7,58.6,45.1,49.6,42.7,37.5,89,58,31,30.20,30.08,2,0,12,0.00
2013-5-26,74.3,57.8,41.1,55.2,46.8,39.5,95,71,35,30.22,30.12,5,0,10,0.00
2013-5-27,78.6,65.1,46.8,61.8,54.1,45.2,97,71,46,30.24,30.12,4,1,9,0.00
2013-5-28,85.5,72.4,59.4,69.1,62.5,53.9,87,72,55,30.20,30.08,4,1,12,0.00
2013-5-29,86.2,76.3,62.8,68.9,65.5,60.3,94,71,52,30.17,30.10,4,1,13,0.00
2013-5-30,87.2,76.2,64.2,71.3,66.8,62.4,95,74,52,30.21,30.12,3,0,8,0.00
2013-5-31,87.2,77.4,66.7,72.6,68.2,64.0,97,75,52,30.17,30.04,5,1,10,0.00
2013-6-1,89.1,79.4,67.8,72.4,69.0,66.3,96,72,51,30.08,29.95,4,1,11,0.00
2013-6-2,87.5,78.4,68.0,71.7,67.6,-99.9,90,72,57,29.99,29.84,4,1,14,0.02
2013-6-3,82.3,75.3,71.3,74.7,71.9,69.5,98,90,72,29.88,29.77,3,0,7,0.15
2013-6-4,81.2,72.0,63.2,69.9,62.6,55.8,97,74,49,30.07,29.88,6,1,17,0.00
2013-6-5,79.7,70.3,57.5,64.0,58.5,54.2,97,69,47,30.11,29.98,5,1,10,0.00
2013-6-6,77.1,69.6,61.8,70.7,65.7,58.5,95,88,74,30.02,29.79,5,2,14,0.02
2013-6-7,76.0,71.1,68.2,75.7,70.5,67.9,100,98,95,29.81,29.42,6,0,15,3.93
2013-6-8,81.5,72.5,66.8,73.2,69.6,65.5,100,91,70,30.04,29.75,3,0,10,0.30
2013-6-9,86.4,76.0,64.0,75.8,70.0,63.2,99,83,63,30.11,30.00,3,0,8,0.02
2013-6-10,84.5,75.0,71.8,77.4,72.6,70.2,97,93,71,30.05,29.83,4,1,12,0.34
2013-6-11,86.7,77.0,69.3,73.1,69.7,66.2,98,80,55,29.88,29.81,3,0,14,0.00
2013-6-12,92.1,80.2,64.8,77.1,71.5,63.3,97,77,53,29.89,29.79,2,0,8,0.00
2013-6-13,96.1,79.8,67.0,80.1,72.7,63.2,98,81,45,29.79,29.50,3,1,16,0.23
2013-6-14,80.4,70.8,60.8,66.5,61.6,57.1,98,75,49,29.96,29.63,2,0,10,0.00
2013-6-15,86.1,72.1,57.1,68.4,62.5,55.7,96,74,45,30.05,29.95,5,0,8,0.00
2013-6-16,89.7,77.9,64.1,72.9,67.3,59.1,93,71,54,30.04,29.92,3,0,10,0.00
2013-6-17,84.1,77.0,70.0,76.6,71.4,66.4,91,83,67,29.97,29.87,3,0,8,0.32
2013-6-18,82.4,74.8,67.9,75.8,71.4,66.9,98,90,76,29.90,29.70,3,0,8,0.67
2013-6-19,75.8,70.3,64.6,68.4,66.5,64.0,99,88,74,30.08,29.81,5,1,11,0.00
2013-6-20,78.9,71.0,62.7,67.2,60.7,50.4,96,72,53,30.21,30.08,6,1,14,0.00
2013-6-21,80.2,70.6,56.5,69.5,61.8,51.6,97,75,52,30.22,30.14,6,1,12,0.00
2013-6-22,81.3,71.9,67.2,72.9,68.2,64.3,97,88,69,30.18,30.07,5,1,11,0.36
2013-6-23,85.2,77.6,70.1,76.3,72.9,69.3,99,86,70,30.16,30.07,4,1,9,0.00
2013-6-24,89.2,79.6,71.2,78.0,74.0,70.0,98,84,65,30.14,30.02,4,0,10,0.00
2013-6-25,91.8,81.0,71.3,79.0,73.8,69.5,95,80,62,30.06,29.91,2,0,8,0.00
2013-6-26,92.5,80.2,69.5,78.5,72.9,68.3,97,80,60,29.95,29.80,4,1,9,0.44
2013-6-27,90.3,77.3,67.7,78.5,72.7,67.0,99,87,62,29.86,29.64,3,0,11,0.00
2013-6-28,92.4,80.7,71.2,78.8,74.0,69.9,97,82,58,29.68,29.50,3,1,10,0.31
2013-6-29,84.2,76.2,69.7,77.2,73.1,69.1,99,91,72,29.68,29.52,4,0,8,0.40
2013-6-30,84.9,77.7,72.2,77.0,74.2,70.7,98,89,74,29.83,29.67,6,1,13,0.27
2013-7-1,81.4,75.1,70.4,76.7,73.1,69.3,99,94,81,29.95,29.80,7,1,13,0.29
2013-7-2,80.3,74.1,72.2,76.5,72.8,71.2,99,96,84,30.15,29.94,5,1,11,0.81
2013-7-3,86.5,77.4,73.3,78.4,75.0,72.7,98,93,73,30.19,30.11,8,1,15,0.25
2013-7-4,87.5,80.4,72.6,78.3,74.4,71.2,99,83,61,30.24,30.14,5,1,11,0.01
2013-7-5,88.1,80.8,71.4,79.3,74.5,70.2,98,82,63,30.23,30.10,4,1,11,0.00
2013-7-6,87.9,82.2,72.8,77.3,74.4,71.6,97,78,62,30.20,30.06,4,0,8,0.00
2013-7-7,89.0,81.6,70.7,77.9,74.6,69.2,96,80,66,30.12,29.99,4,1,10,0.00
2013-7-8,86.6,77.8,71.3,78.7,73.9,70.4,99,88,68,30.12,30.02,4,0,8,0.80
2013-7-9,89.1,78.6,71.0,79.5,74.3,70.1,99,88,67,30.09,30.00,4,1,11,0.00
2013-7-10,90.1,80.6,74.9,80.4,75.6,72.0,96,85,70,30.03,29.88,4,1,10,0.00
2013-7-11,84.4,76.3,73.1,77.1,73.4,71.0,98,91,74,29.93,29.84,2,0,9,0.50
2013-7-12,77.1,73.1,67.5,73.1,70.9,66.6,99,93,84,29.97,29.81,6,0,12,0.21
2013-7-13,82.2,75.1,71.5,76.9,72.7,70.3,97,92,79,30.16,29.97,7,1,15,0.29
2013-7-14,85.9,79.0,71.6,77.8,74.0,70.7,99,86,64,30.26,30.16,5,1,13,0.00
2013-7-15,90.4,79.8,70.2,78.4,73.5,69.3,99,83,56,30.27,30.17,5,1,7,0.00
2013-7-16,93.7,83.3,69.8,81.3,75.9,68.6,97,80,59,30.20,30.10,3,0,6,0.05
2013-7-17,93.6,84.1,73.1,80.6,76.8,72.2,99,80,56,30.15,30.04,3,0,6,0.00
2013-7-18,93.1,83.8,72.6,82.9,77.0,71.3,96,81,59,30.08,29.97,4,0,7,0.00
2013-7-19,94.1,84.5,75.3,81.6,77.3,73.9,97,80,64,30.02,29.90,3,0,10,0.00
2013-7-20,89.4,82.7,74.7,80.2,76.1,72.9,95,81,69,29.95,29.83,3,0,10,0.00
2013-7-21,86.7,79.2,73.2,78.6,74.5,71.4,96,86,74,29.92,29.83,4,1,10,0.03
2013-7-22,87.5,77.6,71.7,79.4,75.0,70.8,99,92,74,29.89,29.75,3,0,9,0.07
2013-7-23,92.1,81.8,73.4,77.9,75.4,72.3,98,82,60,29.77,29.64,2,0,10,0.00
2013-7-24,93.5,80.3,71.7,78.4,73.6,69.6,97,82,58,29.79,29.65,3,0,9,0.14
2013-7-25,80.7,73.2,67.2,71.8,68.9,65.3,98,87,70,29.98,29.78,6,1,13,0.83
2013-7-26,83.2,73.9,61.1,72.5,65.8,60.0,98,78,55,30.05,29.96,3,0,7,0.00
2013-7-27,84.9,75.7,66.3,74.6,70.1,64.8,99,84,64,30.01,29.86,4,1,9,0.00
2013-7-28,85.1,77.0,72.2,78.3,73.2,70.4,96,88,69,29.93,29.86,3,0,14,0.50
2013-7-29,81.6,75.8,68.8,73.0,70.5,66.9,98,85,63,30.09,29.92,4,0,10,0.01
2013-7-30,86.6,74.9,60.9,75.0,68.2,59.8,97,81,54,30.16,30.08,4,0,8,0.00
2013-7-31,82.0,74.2,70.1,75.4,71.2,68.5,97,91,75,30.09,29.96,3,0,12,0.08
2013-8-1,84.5,76.2,70.2,76.9,72.9,68.7,99,90,75,29.96,29.78,4,0,9,0.14
2013-8-2,88.5,77.2,66.3,76.1,70.5,-99.9,98,83,58,29.95,29.83,4,0,6,0.00
2013-8-3,87.0,78.1,71.2,79.8,74.9,69.5,99,90,76,29.94,29.84,3,0,8,0.15
2013-8-4,84.4,74.7,65.3,73.0,67.5,60.1,99,80,48,29.97,29.81,3,0,11,0.01
2013-8-5,81.8,73.0,62.2,70.5,64.4,59.3,97,76,52,30.04,29.95,4,0,9,0.00
2013-8-6,80.4,74.0,69.2,72.1,68.7,64.8,95,84,71,30.00,29.93,5,1,11,0.00
2013-8-7,87.2,77.9,69.0,75.5,70.8,67.9,97,80,59,30.04,29.96,6,1,12,0.00
2013-8-8,88.5,80.4,72.3,76.7,73.5,70.6,97,81,58,30.00,29.92,4,1,12,0.00
2013-8-9,94.1,84.2,74.0,80.0,76.0,72.6,97,78,59,29.94,29.24,3,0,10,0.00
2013-8-10,95.5,83.3,74.7,80.0,75.6,72.3,97,79,54,29.30,29.19,2,0,9,0.22
2013-8-11,86.7,78.5,72.6,79.2,75.3,72.0,99,90,72,29.28,29.18,3,0,7,0.00
2013-8-12,90.0,81.4,72.2,78.7,75.2,71.3,98,83,61,29.22,29.10,5,0,8,0.00
2013-8-13,89.6,80.0,72.3,79.1,75.3,71.5,99,86,67,29.10,28.91,2,0,9,0.40
2013-8-14,74.6,70.4,58.9,72.7,63.2,55.3,99,79,57,29.22,28.94,5,1,14,0.00
2013-8-15,75.7,66.5,58.0,64.2,59.4,56.6,97,79,53,29.27,29.18,5,1,11,0.00
2013-8-16,74.9,67.2,56.3,65.6,60.8,55.1,96,81,61,29.28,29.21,8,1,13,0.00
2013-8-17,73.8,69.2,62.3,70.0,66.2,60.5,97,90,84,29.28,29.22,7,2,15,0.00
2013-8-18,78.7,72.5,68.2,74.2,70.0,66.1,99,92,81,29.28,29.18,4,0,10,0.06
2013-8-19,75.1,69.6,66.2,72.9,68.3,65.1,99,96,91,29.28,29.16,4,0,8,0.40
2013-8-20,82.7,73.5,64.2,75.2,70.1,63.6,100,90,71,29.25,29.17,4,0,6,0.00
2013-8-21,86.3,77.4,71.5,78.5,74.2,70.3,99,90,72,29.29,29.15,3,0,8,0.00
2013-8-22,89.4,78.2,71.0,76.6,72.6,68.5,98,84,59,29.18,29.05,2,0,9,0.00
2013-8-23,90.8,76.8,68.1,76.9,71.2,65.4,98,84,59,29.13,28.97,5,1,11,0.33
2013-8-24,80.3,72.5,63.7,69.6,64.3,60.4,96,77,51,29.35,29.13,7,1,16,0.01
2013-8-25,78.3,69.0,58.9,68.5,60.9,54.7,99,77,46,29.43,29.29,6,1,14,0.00
2013-8-26,83.7,68.3,51.9,67.8,59.7,50.8,97,77,45,29.33,29.10,4,0,7,0.00
2013-8-27,90.1,76.6,62.5,75.8,68.4,60.2,93,77,56,29.11,28.92,3,0,8,0.00
2013-8-28,82.2,77.2,71.2,77.0,73.5,69.4,96,89,79,28.95,28.83,1,0,6,0.01
2013-8-29,84.2,76.7,71.6,76.4,73.2,69.2,98,89,73,29.00,28.80,5,0,14,0.02
2013-8-30,85.3,74.8,64.1,72.3,68.3,62.9,97,81,58,29.05,28.93,4,0,7,0.00
2013-8-31,87.8,78.7,67.9,75.4,71.2,67.0,98,79,61,28.95,28.84,5,1,11,0.00
2013-9-1,91.3,79.1,72.5,79.0,73.6,70.7,97,84,62,28.88,28.78,4,1,12,0.42
2013-9-2,92.2,79.6,70.1,77.4,73.4,69.5,99,83,56,28.85,28.76,2,0,8,0.01
2013-9-3,85.9,75.9,69.9,78.3,72.8,68.7,99,91,74,28.91,28.76,5,0,13,0.08
2013-9-4,82.2,73.8,67.4,72.1,67.1,62.2,99,81,61,29.07,28.91,5,1,13,0.00
2013-9-5,89.6,74.3,61.4,72.9,65.0,58.2,98,76,41,29.05,28.97,4,0,12,0.00
2013-9-6,82.2,73.2,64.5,67.2,63.2,58.4,96,72,53,29.15,29.03,4,1,10,0.00
2013-9-7,82.7,69.3,56.0,67.0,61.6,54.6,96,78,53,29.09,28.93,3,0,8,0.00
2013-9-8,86.2,74.5,62.3,71.6,65.3,60.2,96,75,44,28.94,28.85,5,1,7,0.00
2013-9-9,85.7,75.2,65.7,74.0,69.8,63.8,97,84,64,29.10,28.95,6,1,13,0.00
2013-9-10,89.5,79.3,67.8,75.4,71.1,66.6,98,78,54,29.17,29.07,3,0,8,0.00
2013-9-11,91.0,79.3,69.1,73.6,68.7,63.4,95,72,41,29.14,29.01,5,1,12,0.00
2013-9-12,90.7,79.1,69.2,75.4,71.6,66.9,94,79,58,29.01,28.73,4,0,9,0.04
2013-9-13,84.6,75.6,68.5,71.8,66.0,58.8,96,74,48,28.83,28.68,2,0,11,0.00
2013-9-14,72.4,66.3,58.0,59.2,53.6,49.1,82,64,46,29.09,28.84,4,1,12,0.00
2013-9-15,78.7,64.6,48.3,61.5,55.2,46.7,95,74,45,29.18,29.05,4,0,9,0.00
2013-9-16,85.4,72.2,63.6,72.0,64.8,59.5,95,79,47,29.14,28.98,3,0,11,0.00
2013-9-17,72.6,65.8,58.2,61.9,56.1,51.0,90,72,48,29.27,29.14,7,2,16,0.00
2013-9-18,72.0,60.9,48.2,56.9,52.1,46.6,98,75,48,29.25,29.11,4,0,12,0.00
2013-9-19,76.0,65.9,52.5,63.6,57.5,50.9,95,76,57,29.14,29.03,3,0,9,0.00
2013-9-20,77.6,69.1,62.7,67.0,63.3,59.8,95,82,65,29.03,28.91,4,1,9,0.00
2013-9-21,74.3,67.4,61.8,69.9,65.5,60.4,98,94,84,28.92,28.67,5,1,12,1.71
2013-9-22,75.0,68.4,63.9,67.6,62.3,57.5,99,82,56,28.84,28.67,4,1,17,0.34
2013-9-23,68.9,62.0,52.3,58.5,54.2,50.5,94,76,57,29.01,28.84,7,1,14,0.00
2013-9-24,71.4,61.9,51.3,61.9,55.3,49.8,97,81,59,29.04,28.88,4,1,8,0.00
2013-9-25,73.7,62.8,50.5,63.1,57.5,49.4,97,84,62,28.90,28.80,5,0,8,0.00
2013-9-26,74.4,66.2,58.4,62.4,59.7,55.8,98,81,53,28.96,28.80,4,0,12,0.01
2013-9-27,71.2,62.9,53.2,62.5,56.7,52.1,99,82,57,29.10,28.96,6,1,17,0.00
2013-9-28,71.1,63.3,53.1,60.2,57.2,51.5,98,81,66,29.15,29.07,6,1,12,0.00
2013-9-29,72.3,63.3,52.5,61.9,57.6,51.1,98,82,64,29.08,28.93,6,0,12,0.00
2013-9-30,72.6,61.8,51.6,62.6,55.7,50.6,98,82,53,29.00,28.90,4,0,7,0.00
2013-10-1,79.0,65.3,50.8,67.7,59.1,49.7,98,82,57,29.01,28.90,3,0,7,0.00
2013-10-2,80.6,69.3,56.8,67.2,62.0,55.7,97,79,54,29.02,28.92,0,0,0,0.00
2013-10-3,82.7,70.3,56.7,70.2,63.1,55.6,97,80,53,29.02,28.94,0,0,0,0.00
2013-10-4,84.5,73.7,64.4,70.0,66.4,62.9,96,79,55,29.00,28.92,3,0,9,0.00
2013-10-5,87.0,74.2,61.5,72.4,66.7,60.1,96,79,49,29.00,28.91,2,0,6,0.00
2013-10-6,82.0,74.3,65.3,72.0,68.4,63.9,97,83,67,28.95,28.83,7,2,13,0.00
2013-10-7,77.1,71.2,66.6,73.2,69.8,66.0,98,96,86,28.88,28.75,4,1,15,0.64
2013-10-8,67.0,60.8,59.3,66.4,53.2,49.4,98,76,67,29.08,28.88,7,2,20,0.00
2013-10-9,59.5,57.9,55.8,57.8,55.4,53.0,98,91,81,29.07,28.95,3,1,12,0.44
2013-10-10,60.3,57.5,55.1,58.4,56.5,54.3,98,96,93,28.95,28.79,2,1,9,0.39
2013-10-11,64.7,60.9,57.8,62.6,59.8,57.0,99,96,92,28.83,28.76,1,0,7,0.06
2013-10-12,68.7,64.4,61.3,67.1,63.6,60.2,99,97,93,28.94,28.80,1,0,7,0.14
2013-10-13,68.0,64.6,62.4,66.3,63.9,61.8,99,98,93,29.05,28.93,3,0,13,0.11
2013-10-14,67.0,62.9,59.0,63.0,61.1,57.8,97,94,85,29.09,29.01,3,1,14,0.00
2013-10-15,70.2,62.9,55.0,64.8,59.9,54.2,98,90,77,29.04,28.89,4,0,9,0.01
2013-10-16,71.3,65.8,61.9,65.9,63.4,60.3,98,92,76,28.90,28.78,4,0,6,0.00
2013-10-17,75.1,67.5,59.9,68.2,64.0,59.0,99,89,72,28.79,28.66,2,0,7,0.01
2013-10-18,68.5,63.3,56.1,65.3,56.1,50.0,96,79,53,28.87,28.69,4,0,8,0.00
2013-10-19,66.0,62.2,57.3,64.8,60.9,56.2,97,96,92,28.82,28.64,4,0,7,0.04
2013-10-20,60.2,54.2,41.6,58.9,47.3,40.0,97,79,49,28.95,28.72,5,0,15,0.00
2013-10-21,64.4,50.9,37.5,54.2,44.4,36.5,98,81,45,28.99,28.83,3,0,7,0.00
2013-10-22,68.3,58.4,48.7,60.4,54.6,47.3,95,87,69,28.83,28.63,2,0,6,0.00
2013-10-23,61.3,55.2,46.9,57.2,51.2,38.6,98,87,65,28.80,28.50,2,0,8,0.40
2013-10-24,56.0,47.7,36.6,43.4,38.4,34.7,96,71,50,28.99,28.79,2,0,10,0.00
2013-10-25,53.4,45.1,34.4,39.7,35.2,31.3,93,70,43,29.15,28.98,5,0,11,0.01
2013-10-26,56.9,43.6,29.5,42.5,34.5,28.2,95,74,40,29.15,28.87,4,0,13,0.00
2013-10-27,64.2,51.4,38.9,48.1,42.3,37.0,94,74,44,28.94,28.84,2,0,11,0.00
2013-10-28,67.2,53.4,40.9,55.7,48.6,39.6,98,85,57,29.06,28.93,3,0,7,0.00
2013-10-29,68.2,57.6,52.5,58.2,51.2,-99.9,97,84,64,29.14,29.05,3,0,6,0.00
2013-10-30,69.7,58.3,52.3,62.6,51.0,-99.9,95,85,76,29.11,28.96,2,0,6,0.00
2013-10-31,73.5,64.9,57.5,63.2,60.0,56.3,97,85,68,29.00,28.74,5,0,12,0.00
2013-11-1,72.8,68.6,65.4,68.4,66.0,63.2,98,92,79,28.74,28.49,5,1,14,0.44
2013-11-2,68.6,60.9,53.2,64.7,54.4,42.6,99,81,50,28.72,28.48,2,0,9,0.01
2013-11-3,60.8,51.8,41.5,45.0,38.9,-99.9,94,66,47,29.17,28.72,1,0,8,0.00
2013-11-4,51.3,44.8,36.1,39.3,35.6,29.5,92,71,44,29.36,29.17,7,1,16,0.00
2013-11-5,58.5,50.4,41.4,52.8,44.8,35.9,86,81,75,29.34,29.22,3,0,9,0.00
2013-11-6,67.4,57.5,47.6,59.6,53.4,46.4,98,87,69,29.23,28.91,3,0,6,0.00
2013-11-7,69.5,60.8,47.2,64.1,55.0,36.0,99,83,56,28.91,28.68,2,0,10,0.09
2013-11-8,55.0,45.7,32.9,39.2,33.9,30.1,93,66,40,29.11,28.87,2,0,9,0.00
2013-11-9,56.0,42.6,29.3,41.0,34.7,27.8,95,76,47,29.17,28.93,6,0,12,0.00
2013-11-10,68.8,53.8,37.7,44.4,37.6,29.8,92,58,33,29.02,28.80,3,0,12,0.00
2013-11-11,55.5,45.2,31.9,41.0,34.5,29.5,93,68,44,29.12,28.91,5,0,10,0.00
2013-11-12,56.7,43.3,36.7,43.3,33.4,20.0,86,69,47,29.18,28.80,1,0,12,0.00
2013-11-13,43.3,35.7,26.5,24.8,21.7,19.0,85,58,40,29.28,29.17,2,0,10,0.00
2013-11-14,57.2,40.6,24.9,28.7,24.9,20.7,87,58,28,29.21,29.09,4,0,9,0.00
2013-11-15,63.8,48.6,33.2,49.6,37.5,25.8,82,67,41,29.12,28.98,4,0,8,0.00
2013-11-16,61.3,56.5,51.7,57.3,53.7,47.4,94,90,84,29.04,28.97,2,0,7,0.00
2013-11-17,70.4,62.4,53.7,65.4,58.7,52.6,98,88,73,28.99,28.65,3,0,6,0.04
2013-11-18,70.0,62.8,50.1,66.9,52.9,34.4,98,73,40,28.71,28.56,2,0,8,0.11
2013-11-19,54.9,48.5,42.1,36.2,32.6,29.2,69,54,44,29.09,28.70,4,0,13,0.00
2013-11-20,51.3,45.2,38.9,40.6,35.6,30.7,83,69,57,29.22,29.08,7,1,14,0.00
2013-11-21,60.5,49.9,41.2,51.2,44.5,37.9,95,82,70,29.24,29.11,2,0,8,0.00
2013-11-22,70.5,59.9,47.7,61.4,55.8,46.3,98,87,73,29.13,28.81,2,0,10,0.00
2013-11-23,61.7,55.7,43.4,60.3,45.7,20.6,97,72,35,28.89,28.75,1,0,12,0.00
2013-11-24,43.2,34.4,28.8,25.3,12.6,4.8,56,41,27,29.28,28.89,4,0,11,0.00
2013-11-25,40.5,31.8,19.9,21.2,14.7,9.3,84,51,30,29.33,29.12,4,1,8,0.00
2013-11-26,65.0,44.4,34.5,64.7,38.8,16.6,99,82,47,29.14,28.31,9,2,15,0.59
2013-11-27,65.3,43.1,31.2,65.0,41.3,22.8,99,93,70,28.86,28.24,4,0,11,1.10
2013-11-28,41.1,33.2,26.1,28.0,23.1,18.6,91,68,41,29.21,28.86,2,0,8,0.00
2013-11-29,45.9,35.8,25.1,32.6,26.8,22.9,94,72,46,29.38,29.19,6,1,13,0.00
2013-11-30,46.4,37.0,29.6,37.4,30.6,25.8,94,78,64,29.36,29.07,4,0,9,0.00
2013-12-1,51.1,37.1,27.5,39.7,32.2,26.0,96,84,53,29.07,28.74,3,0,6,0.00
2013-12-2,55.9,39.7,29.4,41.3,33.5,28.1,98,81,41,28.75,28.55,3,0,8,0.00
2013-12-3,59.7,45.9,30.0,46.4,39.3,28.7,97,79,59,28.72,28.58,5,0,11,0.00
2013-12-4,57.9,53.1,49.5,56.2,52.0,46.8,98,96,84,28.78,28.70,1,0,2,0.11
2013-12-5,67.3,60.5,52.6,64.3,59.3,51.8,100,96,89,28.82,28.72,4,0,9,0.01
2013-12-6,77.0,69.1,64.1,66.7,64.2,62.4,96,85,67,28.75,28.64,4,0,16,0.01
2013-12-7,67.4,45.3,40.6,62.7,40.9,31.7,96,85,70,29.16,28.71,5,0,16,0.45
2013-12-8,40.6,35.7,33.7,34.0,32.2,28.1,97,88,71,29.17,28.97,7,1,18,0.29
2013-12-9,45.0,39.5,34.6,44.7,39.1,33.8,99,98,97,28.99,28.75,2,0,5,0.41
2013-12-10,45.8,40.8,30.0,45.5,39.9,28.6,99,96,85,28.96,28.62,3,0,12,0.45
2013-12-11,45.8,34.8,25.2,33.7,28.4,23.8,97,80,49,29.10,28.93,2,0,7,0.00
2013-12-12,43.3,34.3,24.0,30.8,24.1,16.4,92,68,40,29.07,28.92,5,0,9,0.00
2013-12-13,48.1,34.6,22.4,30.4,24.0,18.5,89,68,39,29.03,28.91,2,0,8,0.00
2013-12-14,46.0,40.6,36.4,41.0,35.2,28.6,98,82,56,28.97,28.43,4,0,12,1.10
2013-12-15,51.1,42.4,33.8,45.1,37.6,29.3,99,84,61,28.71,28.35,2,0,12,0.03
2013-12-16,50.1,38.5,28.9,37.7,32.4,27.2,95,80,55,28.83,28.69,2,0,7,0.00
2013-12-17,57.7,44.1,32.4,42.5,37.6,30.9,98,80,52,28.77,28.49,5,1,12,0.05
2013-12-18,45.1,37.2,28.4,38.8,29.0,24.3,95,74,46,28.91,28.65,2,0,10,0.01
2013-12-19,59.8,44.5,29.3,35.9,28.9,23.4,85,57,30,28.92,28.82,4,0,13,0.00
2013-12-20,65.4,52.4,39.6,55.8,45.6,31.2,94,78,57,28.86,28.72,3,0,11,0.00
2013-12-21,71.0,60.4,49.3,64.6,56.0,47.0,95,86,69,28.76,28.65,4,1,12,0.00
2013-12-22,79.3,70.1,63.6,68.7,65.0,59.6,95,85,65,28.71,28.61,5,1,16,0.06
2013-12-23,66.3,61.1,47.1,65.6,60.3,46.0,99,97,91,28.74,28.58,3,0,13,1.69
2013-12-24,46.8,40.1,30.5,45.7,31.1,18.3,96,71,56,29.03,28.73,3,0,13,0.00
2013-12-25,35.6,29.2,22.5,23.2,18.2,14.4,89,64,46,29.15,29.00,6,1,14,0.00
2013-12-26,47.7,32.5,20.7,31.9,25.5,18.7,95,78,47,29.00,28.83,1,0,5,0.00
2013-12-27,48.6,34.5,23.5,34.2,26.7,22.0,96,76,40,29.06,28.94,4,0,6,0.00
2013-12-28,58.2,41.8,25.8,41.6,30.9,23.8,93,69,34,28.99,28.77,4,0,9,0.03
2013-12-29,63.2,48.5,42.1,63.1,47.7,41.3,100,97,93,28.77,28.23,6,1,17,1.78
2013-12-30,53.4,44.6,36.8,46.8,41.3,36.3,100,89,71,28.74,28.51,1,0,4,0.00
2013-12-31,50.2,41.4,31.6,41.6,33.8,26.7,96,77,44,28.93,28.71,3,0,12,0.01
2014-1-1,49.0,36.1,28.8,34.7,29.1,25.5,93,78,43,29.01,28.75,3,0,7,0.00
2014-1-2,47.1,40.0,31.8,42.6,37.1,29.7,97,90,72,28.75,28.19,2,0,7,0.47